TIANWANG 1B (TW-1B)
1 40927U 15051C   19103.52883666  .00016012  00000-0  25975-3 0  9993
2 40927  97.1467 149.3175 0006439 263.7157 233.6971 15.52808655199747
TIANWANG 1A (TW-1A)
1 40928U 15051D   19103.37725715  .00005171  00000-0  12988-3 0  9991
2 40928  97.1533 136.1413 0009922 322.9588 162.9982 15.40370893198961
LAPAN A2
1 40931U 15052B   19101.73816806  .00000663  00000-0  32019-5 0  9996
2 40931   5.9960 181.1842 0013179 278.4684  81.5282 14.76603167191203
LQSAT
1 40958U 15057A   19103.47168773  .00000048  00000-0  15156-4 0  9995
2 40958  97.9034 174.4374 0019820  93.7020 266.6453 14.73073033189057
CHUBUSAT 2
1 41338U 16012B   19103.48593134  .00000457  00000-0  28921-4 0  9992
2 41338  31.0025 205.5071 0013686 167.9225 192.1740 15.00122978172962
CHUBUSAT 3
1 41339U 16012C   19103.46320540  .00000549  00000-0  35995-4 0  9991
2 41339  31.0096 203.8344 0012945 174.5671 185.5097 15.00301068172950
OUFTI-1
1 41458U 16025C   19103.46544359  .00001623  00000-0  87106-4 0  9998
2 41458  98.1013 186.9569 0166247 219.1043 139.8071 15.05559839162611
E-STAR-2
1 41459U 16025D   19103.46647910  .00001403  00000-0  76449-4 0  9990
2 41459  98.1010 186.6637 0167135 220.4006 138.4701 15.05220929162589
AAUSAT 4
1 41460U 16025E   19103.45659698  .00002828  00000-0  14620-3 0  9991
2 41460  98.0970 187.7286 0158124 213.8528 145.2536 15.07003933162690
NUSAT 1
1 41557U 16033B   19103.53669008  .00002052  00000-0  79978-4 0  9999
2 41557  97.4173 191.4316 0014408 165.2939 194.8722 15.27034100159991
BEESAT 4
1 41619U 16040W   19102.89446212 +.00002041 +00000-0 +89874-4 0  9998
2 41619 097.3739 166.3458 0009736 255.6935 104.3221 15.22932406143694
PRATHAM
1 41783U 16059A   19103.39394415  .00000068  00000-0  22595-4 0  9997
2 41783  98.0746 164.4155 0032576 230.9140 128.9164 14.62983180135852
ALSAT 1N
1 41789U 16059G   19103.43908700  .00000067  00000-0  21870-4 0  9990
2 41789  98.0765 166.3110 0027446 219.6952 140.2243 14.64228814135950
NAYIF 1
1 42017U 17008BX  19103.44396222  .00002345  00000-0  95899-4 0  9994
2 42017  97.4085 171.2082 0007471  54.0243 306.1687 15.25324272119822
LILACSAT-1
1 42725U 98067ME  19087.71781172  .15670676  12603-4  45746-3 0  9992
2 42725  51.6064 319.7683 0009359 299.6698  60.5570 16.44549673105565
MAX VALIER SAT
1 42778U 17036P   19102.92654014 +.00001495 +00000-0 +68608-4 0  9990
2 42778 097.3617 162.0416 0014249 098.5196 261.7655 15.21877995100086
